Weather Roundup
Issued by NWS

Home | Current Version | Previous Version | Graphics & Text | Print | Product List | Glossary Off
Versions: 1 2 3 4 5 6 7 8 9 10 11 12 13 14 15 16 17 18 19 20 21 22 23 24 25 26 27 28 29 30 31 32 33 34 35 36 37 38 39 40 41 42 43 44 45 46 47 48 49 50

000
NZUS93 KARX 191759
HRRWXR

CURRENT HOURLY OBSERVATIONS ACROSS
MUCH OF THE UPPER MISSISSIPPI VALLEY
NATIONAL WEATHER SERVICE LA CROSSE WI
100 PM CDT FRI SEP 19 2014


...SOUTHEAST MINNESOTA...


CITY           SKY/WX    TMP DP  RH WIND       PRES   REMARKS
ROCHESTER      MOSUNNY   71  57  61 S22G37    29.85F
ROCHESTER/MAYO FAIR      71  55  56 S24G35    29.84F
WINONA         MOSUNNY   73  57  56 S14G23    29.89F
AUSTIN         MOSUNNY   72  59  64 S22G33    29.84F
ALBERT LEA     MOSUNNY   75  61  60 S20G30    29.81F
DODGE CENTER   MOSUNNY   72  59  64 S32G43    29.82F
PRESTON        CLOUDY    69  60  73 S23G31    29.91S
OWATONNA       MOSUNNY   73  59  60 S20G31    29.77F
FARIBAULT      SUNNY     77  55  47 S24G30    29.77F
$$

...ELSEWHERE IN MINNESOTA...


CITY           SKY/WX    TMP DP  RH WIND       PRES   REMARKS
MINNEAPOLIS    CLOUDY    72  59  63 S16G25    29.74F
INTNL FALLS    LGT RAIN  60  58  92 SW8G17    29.60F
DULUTH         CLOUDY    62  54  74 SW16G25   29.73S
RED WING       MOSUNNY   75  57  53 S16G24    29.78F
REDWOOD FALLS  CLOUDY    73  63  70 SW15G21   29.71S
MANKATO        MOSUNNY   75  59  57 S20G36    29.74F
WORTHINGTON    SUNNY     75  63  64 S23G32    29.73F
FAIRMONT       SUNNY     75  55  50 S22G31    29.76F
$$

...SOUTHWEST WISCONSIN...


CITY           SKY/WX    TMP DP  RH WIND       PRES   REMARKS
LA CROSSE      MOSUNNY   72  55  55 S23G31    29.91F
PRAIRIE DU CHI SUNNY     71  53  52 S12G21    29.98F
BOSCOBEL       SUNNY     74  53  48 S17G24    29.99F
LONE ROCK      NOT AVBL
PLATTEVILLE    SUNNY     70  56  59 S17       30.04F
FORT MC COY    MOSUNNY   70  52  53 S10G21    29.95F
VIROQUA        FAIR      69  54  57 S16G23    29.97F
WIS DELLS      SUNNY     70  51  49 SW21G28   30.00F
$$

...ELSEWHERE IN WISCONSIN...


CITY           SKY/WX    TMP DP  RH WIND       PRES   REMARKS
MILWAUKEE      MOSUNNY   72  50  45 S16       30.08F
MADISON        MOSUNNY   71  51  49 S17G25    30.03F
GREEN BAY      MOSUNNY   70  52  52 S18G28    30.01F
EAU CLAIRE     PTSUNNY   69  55  60 S18G36    29.83F
BLACK RVR FLS  FAIR      71  52  51 S14G26    29.92F
MEDFORD        MOSUNNY   66  52  60 S17G32    29.91F
WAUSAU         PTSUNNY   67  51  56 S21G31    29.93F
WIS RAPIDS     MOSUNNY   71  51  49 S12G29    29.96F
MARSHFIELD     MOSUNNY   70  54  56 S22G30    29.92F
RICE LAKE      CLOUDY    66  55  67 S17G26    29.82F
$$

...NORTHEAST IOWA...


CITY           SKY/WX    TMP DP  RH WIND       PRES   REMARKS
WATERLOO       MOSUNNY   73  58  59 S24G32    29.94F
DUBUQUE        SUNNY     71  53  52 S21G29    30.02F
DECORAH        MOSUNNY   70  55  60 S15G29    29.94F
MASON CITY     SUNNY     76  61  59 S23G38    29.87F
CHARLES CITY   MOSUNNY   72  57  60 S21G31    29.92F
OELWEIN        MOSUNNY   72  55  56 S21G35    29.99S
$$

...ELSEWHERE IN IOWA...


CITY           SKY/WX    TMP DP  RH WIND       PRES   REMARKS
DES MOINES     PTSUNNY   77  62  59 S18       29.95F
IOWA CITY      SUNNY     74  57  55 S17G25    30.03F
FORT DODGE     SUNNY     77  63  61 S20G28    29.87F
MARSHALLTOWN   MOSUNNY   73  60  63 S20G30    29.95F
CEDAR RAPIDS   MOSUNNY   72  58  61 S16G22    30.01S
$$

...NORTHERN ILLINOIS...


CITY           SKY/WX    TMP DP  RH WIND       PRES   REMARKS
CHICAGO-OHARE  MOSUNNY   72  46  39 S20G26    30.11F
DUPAGE         SUNNY     73  48  41 S20G25    30.10F
CHICAGO-MIDWAY MOSUNNY   73  47  39 S13G25    30.12F
MOLINE         SUNNY     73  52  47 S14       30.05F
ROCKFORD       MOSUNNY   73  48  41 S20G26    30.09F
STERLING       SUNNY     73  52  46 S8G18     30.07F
PEORIA         SUNNY     75  53  46 S15       30.09F
$$

NOTE: "FAIR" INDICATES FEW OR NO CLOUDS BELOW 12,000 FEET WITH NO
SIGNIFICANT WEATHER AND/OR OBSTRUCTIONS TO VISIBILITY. WIND
SPEEDS ARE IN MILES-PER-HOUR.



USA.gov is the U.S. government's official web portal to all federal, state and local government web resources and services.